Meteo orario Porto Alegre

Oggi, 19 Gennaio, Martedi

Tempo Temperatura Precipitazioni Vento Pressione Umidità
00:00 +20°C° 0 mm 2 m/s 760 mm Hg 74%
01:00 +20°C° 0 mm 2 m/s 760 mm Hg 75%
02:00 +20°C° 0 mm 2 m/s 759 mm Hg 76%
03:00 +21°C° 0 mm 1 m/s 759 mm Hg 76%
04:00 +20°C° 0 mm 1 m/s 759 mm Hg 76%
05:00 +20°C° 0 mm 1 m/s 759 mm Hg 76%
06:00 +20°C° 0 mm 1 m/s 759 mm Hg 77%
07:00 +22°C° 0 mm 1 m/s 759 mm Hg 69%
08:00 +24°C° 0 mm 2 m/s 760 mm Hg 62%
09:00 +26°C° 0 mm 2 m/s 760 mm Hg 54%
10:00 +27°C° 0 mm 3 m/s 760 mm Hg 51%
11:00 +28°C° 0 mm 3 m/s 760 mm Hg 48%
12:00 +29°C° 0 mm 4 m/s 760 mm Hg 44%
13:00 +30°C° 0 mm 4 m/s 759 mm Hg 44%
14:00 +30°C° 0 mm 5 m/s 759 mm Hg 44%
15:00 +30°C° 0 mm 5 m/s 759 mm Hg 44%
16:00 +29°C° 0 mm 5 m/s 759 mm Hg 47%
17:00 +28°C° 0 mm 5 m/s 759 mm Hg 51%
18:00 +27°C° 0 mm 5 m/s 758 mm Hg 54%
19:00 +26°C° 0 mm 5 m/s 759 mm Hg 58%
20:00 +25°C° 0 mm 5 m/s 760 mm Hg 62%
21:00 +23°C° 0 mm 5 m/s 760 mm Hg 67%
22:00 +22°C° 0 mm 4 m/s 760 mm Hg 68%
23:00 +22°C° 0 mm 4 m/s 760 mm Hg 70%

Domani, 20 Gennaio, Mercoledi

Tempo Temperatura Precipitazioni Vento Pressione Umidità
00:00 +22°C° 0 mm 4 m/s 760 mm Hg 72%
01:00 +22°C° 0 mm 3 m/s 760 mm Hg 73%
02:00 +21°C° 0 mm 3 m/s 760 mm Hg 75%
03:00 +21°C° 0 mm 3 m/s 759 mm Hg 76%
04:00 +21°C° 0 mm 3 m/s 759 mm Hg 77%
05:00 +21°C° 0 mm 2 m/s 759 mm Hg 79%
06:00 +21°C° 0 mm 2 m/s 759 mm Hg 80%
07:00 +23°C° 0 mm 2 m/s 759 mm Hg 74%
08:00 +25°C° 0 mm 3 m/s 760 mm Hg 67%
09:00 +27°C° 0 mm 3 m/s 760 mm Hg 61%
10:00 +28°C° 0 mm 3 m/s 760 mm Hg 56%
11:00 +29°C° 0 mm 4 m/s 760 mm Hg 52%
12:00 +32°C° 0 mm 4 m/s 760 mm Hg 48%
13:00 +32°C° 0 mm 4 m/s 760 mm Hg 48%
14:00 +32°C° 0 mm 5 m/s 759 mm Hg 48%
15:00 +32°C° 0 mm 6 m/s 759 mm Hg 47%
16:00 +30°C° 0 mm 6 m/s 759 mm Hg 51%
17:00 +29°C° 0 mm 6 m/s 759 mm Hg 55%
18:00 +27°C° 0 mm 6 m/s 759 mm Hg 59%
19:00 +26°C° 0 mm 5 m/s 759 mm Hg 63%
20:00 +25°C° 0 mm 5 m/s 760 mm Hg 67%
21:00 +23°C° 0 mm 5 m/s 760 mm Hg 70%
22:00 +23°C° 0 mm 5 m/s 760 mm Hg 72%
23:00 +23°C° 0 mm 4 m/s 761 mm Hg 74%

Dopodomani, 21 Gennaio, Giovedi

Tempo Temperatura Precipitazioni Vento Pressione Umidità
00:00 +23°C° 0 mm 4 m/s 761 mm Hg 76%
01:00 +22°C° 0 mm 4 m/s 760 mm Hg 78%
02:00 +22°C° 0 mm 4 m/s 760 mm Hg 79%
03:00 +22°C° 0 mm 3 m/s 760 mm Hg 81%
04:00 +22°C° 0 mm 3 m/s 760 mm Hg 82%
05:00 +22°C° 0 mm 3 m/s 760 mm Hg 84%
06:00 +21°C° 0 mm 4 m/s 760 mm Hg 85%
07:00 +23°C° 0 mm 4 m/s 761 mm Hg 79%
08:00 +25°C° 0 mm 4 m/s 761 mm Hg 72%
09:00 +27°C° 0 mm 4 m/s 762 mm Hg 65%
10:00 +28°C° 0 mm 4 m/s 761 mm Hg 60%
11:00 +29°C° 0 mm 5 m/s 761 mm Hg 55%
12:00 +32°C° 0 mm 5 m/s 761 mm Hg 50%
13:00 +32°C° 0 mm 5 m/s 761 mm Hg 50%
14:00 +32°C° 0 mm 6 m/s 761 mm Hg 50%
15:00 +32°C° 0 mm 6 m/s 760 mm Hg 50%
16:00 +30°C° 0 mm 6 m/s 760 mm Hg 54%
17:00 +28°C° 0 mm 6 m/s 760 mm Hg 58%
18:00 +27°C° 0 mm 6 m/s 760 mm Hg 63%
19:00 +26°C° 0 mm 6 m/s 761 mm Hg 67%
20:00 +24°C° 0 mm 6 m/s 761 mm Hg 72%
21:00 +23°C° 0 mm 5 m/s 761 mm Hg 77%
22:00 +23°C° 0 mm 5 m/s 761 mm Hg 78%
23:00 +23°C° 0 mm 5 m/s 762 mm Hg 80%

22 Gennaio, Venerdi

Tempo Temperatura Precipitazioni Vento Pressione Umidità
00:00 +23°C° 0 mm 4 m/s 762 mm Hg 81%
01:00 +23°C° 0 mm 4 m/s 761 mm Hg 82%
02:00 +22°C° 0 mm 4 m/s 761 mm Hg 84%
03:00 +22°C° 0 mm 3 m/s 761 mm Hg 86%
04:00 +22°C° 0 mm 3 m/s 761 mm Hg 87%
05:00 +22°C° 0 mm 3 m/s 761 mm Hg 88%
06:00 +23°C° 0 mm 2 m/s 761 mm Hg 89%
07:00 +25°C° 0 mm 3 m/s 762 mm Hg 83%
08:00 +26°C° 0 mm 3 m/s 762 mm Hg 77%
09:00 +28°C° 0 mm 3 m/s 762 mm Hg 71%
10:00 +29°C° 0.5 mm 3 m/s 762 mm Hg 67%
11:00 +30°C° 0.5 mm 3 m/s 762 mm Hg 63%
12:00 +32°C° 0.5 mm 4 m/s 761 mm Hg 59%
13:00 +33°C° 0.4 mm 4 m/s 761 mm Hg 59%
14:00 +33°C° 0.4 mm 5 m/s 760 mm Hg 58%
15:00 +33°C° 0.4 mm 6 m/s 760 mm Hg 58%
16:00 +32°C° 0 mm 6 m/s 760 mm Hg 59%
17:00 +30°C° 0 mm 6 m/s 760 mm Hg 60%
18:00 +30°C° 0 mm 6 m/s 760 mm Hg 62%
19:00 +29°C° 0 mm 6 m/s 760 mm Hg 65%
20:00 +28°C° 0 mm 5 m/s 760 mm Hg 69%
21:00 +26°C° 0 mm 5 m/s 761 mm Hg 72%
22:00 +26°C° 0 mm 5 m/s 761 mm Hg 73%
23:00 +26°C° 0 mm 5 m/s 761 mm Hg 74%

23 Gennaio, Sabato

Tempo Temperatura Precipitazioni Vento Pressione Umidità
00:00 +25°C° 0 mm 4 m/s 761 mm Hg 75%
01:00 +25°C° 0 mm 4 m/s 760 mm Hg 77%
02:00 +25°C° 0 mm 3 m/s 760 mm Hg 79%
03:00 +24°C° 0 mm 3 m/s 760 mm Hg 81%
04:00 +24°C° 0 mm 3 m/s 760 mm Hg 82%
05:00 +24°C° 0 mm 2 m/s 760 mm Hg 83%
06:00 +23°C° 0 mm 2 m/s 760 mm Hg 84%
07:00 +25°C° 0 mm 2 m/s 760 mm Hg 75%
08:00 +27°C° 0 mm 2 m/s 760 mm Hg 67%
09:00 +29°C° 0 mm 2 m/s 761 mm Hg 58%
10:00 +30°C° 0 mm 2 m/s 760 mm Hg 53%
11:00 +32°C° 0 mm 2 m/s 760 mm Hg 47%
12:00 +35°C° 0 mm 2 m/s 759 mm Hg 42%
13:00 +36°C° 0 mm 3 m/s 759 mm Hg 42%
14:00 +36°C° 0 mm 3 m/s 758 mm Hg 42%
15:00 +36°C° 0 mm 4 m/s 757 mm Hg 42%
16:00 +35°C° 0 mm 4 m/s 757 mm Hg 46%
17:00 +34°C° 0 mm 5 m/s 757 mm Hg 49%
18:00 +33°C° 0 mm 5 m/s 757 mm Hg 53%
19:00 +32°C° 0 mm 4 m/s 757 mm Hg 57%
20:00 +29°C° 0 mm 4 m/s 757 mm Hg 61%
21:00 +28°C° 0 mm 4 m/s 757 mm Hg 65%
22:00 +27°C° 0 mm 3 m/s 757 mm Hg 68%
23:00 +27°C° 0 mm 3 m/s 757 mm Hg 70%

24 Gennaio, Domenica

Tempo Temperatura Precipitazioni Vento Pressione Umidità
00:00 +26°C° 0 mm 2 m/s 757 mm Hg 72%
01:00 +26°C° 0 mm 2 m/s 757 mm Hg 73%
02:00 +25°C° 0 mm 2 m/s 757 mm Hg 74%
03:00 +25°C° 0 mm 2 m/s 756 mm Hg 75%
04:00 +25°C° 0 mm 2 m/s 756 mm Hg 74%
05:00 +25°C° 0 mm 1 m/s 756 mm Hg 73%
06:00 +25°C° 0 mm 1 m/s 756 mm Hg 72%
07:00 +26°C° 0 mm 1 m/s 756 mm Hg 65%
08:00 +28°C° 0 mm 2 m/s 757 mm Hg 59%
09:00 +29°C° 0 mm 2 m/s 757 mm Hg 53%
10:00 +31°C° 0 mm 2 m/s 757 mm Hg 49%
11:00 +33°C° 0 mm 1 m/s 756 mm Hg 45%
12:00 +35°C° 0 mm 1 m/s 756 mm Hg 40%
13:00 +35°C° 0 mm 1 m/s 755 mm Hg 40%
14:00 +35°C° 0 mm 1 m/s 754 mm Hg 40%
15:00 +36°C° 0 mm 1 m/s 754 mm Hg 40%
16:00 +35°C° 0.1 mm 2 m/s 754 mm Hg 45%
17:00 +34°C° 0.1 mm 2 m/s 753 mm Hg 51%
18:00 +32°C° 0.1 mm 2 m/s 753 mm Hg 56%
19:00 +31°C° 0.2 mm 2 m/s 753 mm Hg 61%
20:00 +30°C° 0.2 mm 2 m/s 753 mm Hg 67%
21:00 +28°C° 0.2 mm 2 m/s 754 mm Hg 72%
22:00 +28°C° 0 mm 1 m/s 753 mm Hg 73%
23:00 +28°C° 0 mm 1 m/s 753 mm Hg 75%
Mostrare altro